period_start,C,m1,H,J0,J1,J2,J3,J4,J5,JA,JB,JC,JD,JJ,JK,JN,#
2014-11-19 00:00:33,0.07,0.92,0.00,22.90,27.27,30.23,4.84,25.80,1025.88,2031.99,3090.61,3051.63,3304.00,350.35,351.30,9.44,0000 0000 0000 0000 000000
2014-11-19 00:05:35,0.08,0.92,0.00,22.87,27.25,30.24,4.83,25.88,1025.89,2031.99,3089.45,3050.86,3303.14,350.35,351.39,9.47,0000 0000 0000 0000 000000
2014-11-19 00:10:36,0.09,0.93,0.00,22.89,27.25,30.24,4.86,25.88,1025.87,2031.99,3088.28,3050.00,3302.27,349.73,350.82,9.50,0000 0000 0000 0000 000000
2014-11-19 00:15:37,0.10,0.93,0.00,22.87,27.25,30.24,4.82,25.92,1025.82,2031.99,3087.05,3049.12,3301.55,350.13,351.01,9.53,0000 0000 0000 0000 000000
2014-11-19 00:20:38,0.11,0.93,0.00,22.85,27.25,30.22,4.77,25.94,1025.87,2031.99,3085.88,3048.38,3300.58,349.54,350.62,9.56,0000 0000 0000 0000 000000
2014-11-19 00:25:40,0.10,0.93,0.00,22.84,27.24,30.22,4.81,25.86,1025.87,2031.99,3084.74,3047.61,3299.71,350.33,351.29,9.59,0000 0000 0000 0000 000000
2014-11-19 00:30:41,0.08,0.94,0.00,22.84,27.23,30.21,4.78,25.93,1025.83,2031.99,3083.64,3046.79,3298.77,350.23,351.25,9.62,0000 0000 0000 0000 000000
2014-11-19 00:35:42,0.09,0.94,0.00,22.82,27.22,30.22,4.79,25.83,1025.84,2031.99,3082.55,3045.95,3297.85,349.80,350.97,9.65,0000 0000 0000 0000 000000
2014-11-19 00:40:43,0.10,0.94,0.00,22.81,27.22,30.21,4.75,25.89,1025.86,2031.99,3081.31,3045.08,3296.87,349.04,350.24,9.67,0000 0000 0000 0000 000000
2014-11-19 00:45:44,0.09,0.95,0.00,22.81,27.22,30.23,4.90,25.84,1025.88,2031.99,3080.28,3044.28,3296.03,350.05,351.01,9.70,0000 0000 0000 0000 000000
2014-11-19 00:50:45,0.10,0.95,0.00,22.81,27.21,30.20,4.85,25.82,1025.89,2031.99,3078.91,3043.59,3295.29,349.92,351.28,9.73,0000 0000 0000 0000 000000
2014-11-19 00:55:47,0.12,0.95,0.00,22.82,27.20,30.20,4.80,25.76,1025.87,2031.99,3077.56,3042.61,3294.22,350.12,351.30,9.76,0000 0000 0000 0000 000000
2014-11-19 01:00:48,0.11,0.96,0.00,22.80,27.20,30.18,4.80,25.84,1025.82,2031.99,3076.15,3041.60,3293.15,350.18,351.24,9.79,0000 0000 0000 0000 000000
2014-11-19 01:05:49,0.11,0.96,0.00,22.78,27.20,30.20,4.78,25.87,1025.79,2031.99,3074.78,3040.74,3292.15,349.30,350.42,9.82,0000 0000 0000 0000 000000
2014-11-19 01:10:50,0.09,0.96,0.00,22.80,27.19,30.18,4.90,25.88,1025.75,2031.99,3073.48,3039.93,3291.29,350.54,351.78,9.85,0000 0000 0000 0000 000000
2014-11-19 01:15:52,0.10,0.97,0.00,22.80,27.18,30.18,4.87,25.92,1025.77,2031.99,3072.21,3038.98,3290.26,350.22,351.26,9.88,0000 0000 0000 0000 000000
2014-11-19 01:20:53,0.10,0.97,0.00,22.77,27.17,30.16,4.88,25.86,1025.74,2031.99,3071.12,3038.08,3289.38,350.39,351.39,9.91,0000 0000 0000 0000 000000
2014-11-19 01:25:54,0.10,0.97,0.00,22.77,27.17,30.17,4.85,25.89,1025.63,2031.99,3069.98,3037.25,3288.63,350.11,351.12,9.94,0000 0000 0000 0000 000000
2014-11-19 01:30:55,0.09,0.97,0.00,22.77,27.17,30.18,4.84,25.94,1025.54,2032.00,3068.81,3036.57,3287.80,349.98,350.97,9.97,0000 0000 0000 0000 000000
2014-11-19 01:35:56,0.07,0.98,0.00,22.77,27.15,30.19,4.88,25.95,1025.61,2032.01,3067.75,3035.87,3286.94,350.15,351.19,10.00,0000 0000 0000 0000 000000
2014-11-19 01:40:57,0.10,0.98,0.00,22.77,27.15,30.16,4.79,25.87,1025.65,2032.00,3066.40,3035.00,3286.03,349.96,350.94,10.03,0000 0000 0000 0000 000000
2014-11-19 01:45:58,0.10,0.98,0.00,22.76,27.15,30.14,4.89,25.86,1025.73,2032.00,3065.59,3034.13,3285.11,350.55,351.66,10.05,0000 0000 0000 0000 000000
2014-11-19 01:51:00,0.10,0.98,0.00,22.75,27.15,30.14,4.82,25.89,1025.53,2032.02,3064.41,3033.54,3284.41,349.97,350.70,10.08,0000 0000 0000 0000 000000
2014-11-19 01:56:01,0.10,0.99,0.00,22.75,27.13,30.14,4.81,25.92,1025.46,2032.01,3063.23,3032.67,3283.38,349.79,350.87,10.11,0000 0000 0000 0000 000000
2014-11-19 02:01:02,0.07,0.99,0.00,22.73,27.12,30.13,4.80,25.82,1025.43,2032.01,3062.08,3031.94,3282.65,350.19,351.35,10.14,0000 0000 0000 0000 000000
2014-11-19 02:06:04,0.09,0.99,0.00,22.73,27.12,30.13,4.95,26.01,1025.43,2032.02,3061.23,3031.11,3281.78,350.37,351.39,10.17,0000 0000 0000 0000 000000
2014-11-19 02:11:05,0.09,1.00,0.00,22.73,27.12,30.14,4.91,25.92,1025.42,2032.01,3060.21,3030.45,3280.93,350.51,351.39,10.20,0000 0000 0000 0000 000000
2014-11-19 02:16:06,0.08,1.00,0.00,22.73,27.11,30.11,4.79,25.83,1025.42,2032.02,3059.08,3029.70,3280.09,349.64,350.73,10.23,0000 0000 0000 0000 000000
2014-11-19 02:21:07,0.07,1.00,0.00,22.72,27.10,30.10,4.84,25.93,1025.41,2032.03,3058.08,3029.00,3279.49,349.64,350.47,10.26,0000 0000 0000 0000 000000
2014-11-19 02:26:09,0.10,1.00,0.00,22.72,27.10,30.12,4.79,25.88,1025.41,2032.05,3057.02,3028.25,3278.69,349.60,350.68,10.29,0000 0000 0000 0000 000000
2014-11-19 02:31:10,0.09,1.01,0.00,22.71,27.10,30.12,4.89,25.86,1025.41,2032.06,3056.02,3027.58,3277.85,350.47,351.41,10.32,0000 0000 0000 0000 000000
2014-11-19 02:36:11,0.08,1.01,0.00,22.71,27.09,30.10,4.87,25.96,1025.41,2032.15,3055.02,3026.95,3277.01,350.40,351.11,10.35,0000 0000 0000 0000 000000
2014-11-19 02:41:12,0.09,1.01,0.00,22.71,27.07,30.08,4.81,25.94,1025.41,2032.11,3053.85,3026.10,3276.12,349.78,350.81,10.38,0000 0000 0000 0000 000000
2014-11-19 02:46:14,0.14,1.02,0.00,22.71,27.07,30.07,4.83,25.91,1025.41,2032.26,3052.86,3025.42,3275.45,350.52,351.54,10.41,0000 0000 0000 0000 000000
2014-11-19 02:51:15,0.05,1.02,0.00,22.69,27.07,30.09,5.00,25.96,1025.41,2032.16,3051.72,3024.71,3274.59,350.83,351.83,10.44,0000 0000 0000 0000 000000
2014-11-19 02:56:17,0.11,1.02,0.00,22.68,27.07,30.06,4.90,25.90,1025.41,2032.35,3050.73,3024.02,3273.88,350.21,351.34,10.46,0000 0000 0000 0000 000000
2014-11-19 03:01:18,0.11,1.02,0.00,22.68,27.05,30.05,4.83,25.87,1025.41,2032.46,3049.67,3023.21,3273.04,350.04,351.22,10.49,0000 0000 0000 0000 000000
2014-11-19 03:06:19,0.11,1.03,0.00,22.68,27.05,30.08,4.84,25.89,1025.41,2032.63,3048.54,3022.64,3272.28,350.30,351.18,10.52,0000 0000 0000 0000 000000
2014-11-19 03:11:21,0.09,1.03,0.00,22.68,27.05,30.07,4.90,25.93,1025.40,2032.68,3047.43,3021.83,3271.57,350.19,351.44,10.55,0000 0000 0000 0000 000000
2014-11-19 03:16:22,0.09,1.03,0.00,22.67,27.05,30.05,4.82,25.91,1025.40,2032.73,3046.29,3021.01,3270.68,350.59,351.43,10.58,0000 0000 0000 0000 000000
2014-11-19 03:21:23,0.10,1.04,0.00,22.66,27.03,30.07,4.88,25.95,1025.40,2032.74,3045.27,3020.19,3269.83,350.21,351.31,10.61,0000 0000 0000 0000 000000
2014-11-19 03:26:24,0.07,1.04,0.00,22.65,27.02,30.05,4.89,25.94,1025.40,2032.62,3044.05,3019.43,3269.04,349.89,351.17,10.64,0000 0000 0000 0000 000000
2014-11-19 03:31:26,0.14,1.04,0.00,22.63,27.02,30.01,4.80,25.93,1025.40,2032.72,3042.83,3018.78,3268.22,350.02,351.11,10.67,0000 0000 0000 0000 000000
2014-11-19 03:36:27,0.10,1.05,0.00,22.64,27.02,30.02,4.77,25.94,1025.40,2032.90,3041.73,3017.95,3267.51,349.69,350.86,10.70,0000 0000 0000 0000 000000
2014-11-19 03:41:28,0.10,1.05,0.00,22.61,27.00,30.00,4.83,25.93,1025.40,2032.94,3040.69,3017.11,3266.57,350.32,351.49,10.73,0000 0000 0000 0000 000000
2014-11-19 03:46:29,0.08,1.05,0.00,22.60,27.00,30.03,4.80,25.88,1025.40,2032.94,3039.76,3016.46,3265.78,350.13,351.16,10.76,0000 0000 0000 0000 000000
2014-11-19 03:51:30,0.07,1.05,0.00,22.61,27.00,30.02,4.77,25.93,1025.30,2032.92,3038.57,3015.82,3265.01,349.72,350.89,10.79,0000 0000 0000 0000 000000
2014-11-19 03:56:32,0.10,1.06,0.00,22.59,27.00,30.02,4.81,25.88,1025.08,2032.95,3037.44,3015.02,3264.18,350.11,351.12,10.82,0000 0000 0000 0000 000000
2014-11-19 04:01:33,0.10,1.06,0.00,22.59,26.99,30.03,4.74,25.86,1025.11,2032.96,3036.45,3014.26,3263.42,350.31,351.29,10.85,0000 0000 0000 0000 000000
2014-11-19 04:06:34,0.09,1.06,0.00,22.59,26.98,29.98,4.90,25.88,1025.08,2032.96,3035.36,3013.50,3262.68,350.29,351.31,10.88,0000 0000 0000 0000 000000
2014-11-19 04:11:36,0.06,1.07,0.00,22.57,26.97,29.99,4.90,25.85,1025.04,2032.98,3034.13,3012.80,3262.00,349.93,351.22,10.90,0000 0000 0000 0000 000000
2014-11-19 04:16:37,0.10,1.07,0.00,22.57,26.97,29.99,4.76,25.82,1024.96,2032.99,3032.86,3012.03,3261.31,349.99,351.03,10.93,0000 0000 0000 0000 000000
2014-11-19 04:21:38,0.09,1.07,0.00,22.55,26.97,29.99,4.82,25.82,1025.03,2032.99,3031.79,3011.28,3260.71,350.00,351.15,10.96,0000 0000 0000 0000 000000
2014-11-19 04:26:40,0.07,1.07,0.00,22.57,26.96,30.01,4.89,25.91,1025.06,2032.99,3031.01,3010.74,3259.79,350.17,351.34,10.99,0000 0000 0000 0000 000000
2014-11-19 04:31:41,0.07,1.08,0.00,22.55,26.95,29.99,4.82,25.93,1024.99,2032.99,3030.04,3010.00,3258.96,349.71,350.89,11.02,0000 0000 0000 0000 000000
2014-11-19 04:36:42,0.10,1.08,0.00,22.56,26.95,29.95,4.77,25.91,1024.95,2032.99,3028.98,3009.15,3258.09,349.56,350.56,11.05,0000 0000 0000 0000 000000
2014-11-19 04:41:43,0.10,1.08,0.00,22.53,26.95,29.97,4.81,26.01,1024.94,2032.99,3027.98,3008.42,3257.20,349.87,350.95,11.08,0000 0000 0000 0000 000000
2014-11-19 04:46:45,0.06,1.08,0.00,22.54,26.94,29.94,4.90,25.91,1024.94,2032.99,3026.99,3007.92,3256.47,350.35,351.24,11.11,0000 0000 0000 0000 000000
2014-11-19 04:51:46,0.10,1.09,0.00,22.53,26.93,29.92,4.79,25.89,1024.95,2032.99,3025.84,3007.10,3255.78,350.05,351.15,11.14,0000 0000 0000 0000 000000
2014-11-19 04:56:47,0.09,1.09,0.00,22.53,26.92,29.90,4.88,25.94,1024.95,2032.99,3024.77,3006.53,3254.99,349.62,350.86,11.17,0000 0000 0000 0000 000000
2014-11-19 05:01:49,0.07,1.09,0.00,22.51,26.92,29.95,4.75,25.86,1024.93,2032.99,3023.69,3005.83,3254.25,349.37,350.48,11.20,0000 0000 0000 0000 000000
2014-11-19 05:06:50,0.08,1.09,0.00,22.50,26.92,29.92,4.89,25.88,1024.92,2032.99,3022.88,3005.07,3253.39,350.38,351.57,11.23,0000 0000 0000 0000 000000
2014-11-19 05:11:51,0.09,1.10,0.00,22.50,26.91,29.92,4.82,25.94,1024.92,2032.99,3021.97,3004.43,3252.52,350.05,351.00,11.26,0000 0000 0000 0000 000000
2014-11-19 05:16:52,0.06,1.10,0.00,22.50,26.90,29.91,4.83,25.92,1024.92,2032.99,3020.98,3003.82,3251.73,350.17,351.24,11.28,0000 0000 0000 0000 000000
2014-11-19 05:21:53,0.09,1.10,0.00,22.49,26.90,29.92,4.89,25.94,1024.92,2032.99,3019.80,3003.04,3251.00,350.06,351.19,11.31,0000 0000 0000 0000 000000
2014-11-19 05:26:55,0.10,1.10,0.00,22.49,26.90,29.93,4.83,25.92,1024.92,2033.00,3018.91,3002.28,3250.20,349.62,350.55,11.34,0000 0000 0000 0000 000000
2014-11-19 05:31:56,0.09,1.11,0.00,22.50,26.88,29.93,4.88,25.99,1024.92,2033.00,3017.86,3001.65,3249.46,349.98,351.27,11.37,0000 0000 0000 0000 000000
2014-11-19 05:36:57,0.07,1.11,0.00,22.47,26.87,29.88,4.87,25.95,1024.92,2033.00,3016.80,3000.96,3248.69,350.61,351.79,11.40,0000 0000 0000 0000 000000
2014-11-19 05:41:58,0.09,1.11,0.00,22.48,26.87,29.88,4.84,26.07,1024.92,2033.00,3015.71,3000.11,3247.99,349.71,350.80,11.43,0000 0000 0000 0000 000000
2014-11-19 05:47:00,0.10,1.11,0.00,22.46,26.86,29.87,4.82,26.02,1024.92,2033.01,3014.63,2999.55,3247.17,350.11,351.35,11.46,0000 0000 0000 0000 000000
2014-11-19 05:52:01,0.08,1.12,0.00,22.45,26.85,29.88,4.91,26.12,1024.94,2033.01,3013.63,2998.81,3246.31,350.61,351.73,11.49,0000 0000 0000 0000 000000
2014-11-19 05:57:03,0.09,1.12,0.00,22.44,26.85,29.87,4.79,26.01,1024.93,2033.02,3012.65,2998.03,3245.53,350.17,351.24,11.52,0000 0000 0000 0000 000000
2014-11-19 06:02:04,0.08,1.12,0.00,22.45,26.85,29.87,4.78,25.96,1024.93,2033.03,3011.60,2997.33,3244.90,350.30,351.44,11.55,0000 0000 0000 0000 000000
2014-11-19 06:07:05,0.09,1.13,0.00,22.44,26.83,29.88,4.82,26.02,1024.92,2033.03,3010.40,2996.58,3244.09,349.72,351.09,11.58,0000 0000 0000 0000 000000
2014-11-19 06:12:06,0.09,1.13,0.00,22.42,26.82,29.87,4.80,26.01,1024.92,2033.10,3009.38,2995.98,3243.33,349.74,350.86,11.61,0000 0000 0000 0000 000000
2014-11-19 06:17:08,0.12,1.13,0.00,22.40,26.82,29.85,4.93,26.11,1024.92,2033.25,3008.28,2995.19,3242.79,350.37,351.60,11.64,0000 0000 0000 0000 000000
2014-11-19 06:22:09,0.08,1.13,0.00,22.41,26.82,29.84,4.79,25.98,1024.93,2033.29,3007.20,2994.46,3241.98,349.86,351.19,11.67,0000 0000 0000 0000 000000
2014-11-19 06:27:10,0.14,1.14,0.00,22.40,26.80,29.80,4.81,25.96,1024.93,2033.54,3006.17,2993.82,3241.13,350.15,351.43,11.69,0000 0000 0000 0000 000000
2014-11-19 06:32:12,0.10,1.14,0.00,22.38,26.80,29.82,4.86,26.02,1024.92,2033.71,3005.29,2993.04,3240.28,349.70,350.90,11.72,0000 0000 0000 0000 000000
2014-11-19 06:37:13,0.08,1.14,0.00,22.38,26.80,29.78,4.79,26.03,1024.93,2033.66,3004.18,2992.29,3239.49,350.07,351.23,11.75,0000 0000 0000 0000 000000
2014-11-19 06:42:14,0.11,1.15,0.00,22.37,26.79,29.82,4.78,26.03,1024.93,2033.56,3002.98,2991.46,3238.67,349.98,351.22,11.78,0000 0000 0000 0000 000000
2014-11-19 06:47:16,0.06,1.15,0.00,22.36,26.77,29.83,4.86,25.93,1024.92,2033.71,3002.07,2990.87,3237.87,349.78,351.11,11.81,0000 0000 0000 0000 000000
2014-11-19 06:52:17,0.10,1.15,0.00,22.34,26.77,29.78,4.84,26.02,1024.92,2033.77,3001.05,2990.06,3236.98,349.47,350.97,11.84,0000 0000 0000 0000 000000
2014-11-19 06:57:19,0.12,1.16,0.00,22.35,26.77,29.79,4.84,26.16,1024.92,2033.84,2999.96,2989.20,3236.08,349.82,351.12,11.87,0000 0000 0000 0000 000000
2014-11-19 07:02:20,0.11,1.16,0.00,22.33,26.77,29.79,4.79,26.08,1024.92,2033.91,2998.79,2988.51,3235.35,349.76,351.11,11.90,0000 0000 0000 0000 000000
2014-11-19 07:07:21,0.07,1.16,0.00,22.33,26.75,29.79,4.80,26.14,1024.92,2033.95,2997.77,2987.88,3234.61,349.37,350.81,11.93,0000 0000 0000 0000 000000
2014-11-19 07:12:22,0.08,1.16,0.00,22.33,26.75,29.78,4.86,26.11,1024.92,2033.95,2996.71,2987.06,3233.91,350.18,351.25,11.96,0000 0000 0000 0000 000000
2014-11-19 07:17:23,0.10,1.17,0.00,22.31,26.75,29.76,4.78,26.04,1024.92,2033.98,2995.59,2986.36,3233.08,350.12,351.47,11.99,0000 0000 0000 0000 000000
2014-11-19 07:22:24,0.10,1.17,0.00,22.29,26.74,29.74,4.88,26.07,1024.92,2033.97,2994.43,2985.56,3232.21,349.98,351.54,12.02,0000 0000 0000 0000 000000
2014-11-19 07:27:25,0.08,1.17,0.00,22.30,26.73,29.77,4.83,26.11,1024.92,2033.98,2993.23,2984.81,3231.43,350.06,351.53,12.05,0000 0000 0000 0000 000000
2014-11-19 07:32:27,0.09,1.18,0.00,22.28,26.72,29.76,4.78,26.09,1024.92,2033.98,2992.17,2984.03,3230.57,349.40,350.84,12.08,0000 0000 0000 0000 000000
2014-11-19 07:37:28,0.11,1.18,0.00,22.28,26.72,29.76,4.79,26.15,1024.92,2033.98,2991.21,2983.20,3229.54,350.30,351.61,12.10,0000 0000 0000 0000 000000
2014-11-19 07:42:29,0.07,1.18,0.00,22.26,26.71,29.74,4.79,26.09,1024.94,2033.98,2990.00,2982.49,3228.88,349.55,350.97,12.13,0000 0000 0000 0000 000000
2014-11-19 07:47:30,0.08,1.18,0.00,22.26,26.70,29.73,4.90,26.16,1024.95,2033.98,2989.10,2981.77,3227.92,350.38,351.83,12.16,0000 0000 0000 0000 000000
2014-11-19 07:52:31,0.08,1.19,0.00,22.25,26.70,29.70,4.76,26.04,1024.95,2033.97,2988.10,2981.01,3227.01,349.52,350.70,12.19,0000 0000 0000 0000 000000
2014-11-19 07:57:33,0.11,1.19,0.00,22.24,26.70,29.74,4.88,26.07,1024.94,2033.99,2986.90,2980.17,3226.24,350.33,351.78,12.22,0000 0000 0000 0000 000000
2014-11-19 08:02:34,0.09,1.19,0.00,22.26,26.68,29.73,4.79,26.01,1024.93,2033.99,2985.86,2979.55,3225.54,349.91,351.29,12.25,0000 0000 0000 0000 000000
2014-11-19 08:07:35,0.08,1.19,0.00,22.25,26.67,29.72,4.96,26.23,1024.94,2033.99,2984.81,2978.85,3224.71,350.34,351.54,12.28,0000 0000 0000 0000 000000
2014-11-19 08:12:37,0.08,1.20,0.00,22.24,26.67,29.70,4.86,26.13,1024.94,2033.99,2983.72,2978.05,3223.95,350.58,351.85,12.31,0000 0000 0000 0000 000000
2014-11-19 08:17:38,0.10,1.20,0.00,22.24,26.65,29.68,4.90,26.22,1024.95,2033.99,2982.76,2977.39,3223.12,350.00,351.38,12.34,0000 0000 0000 0000 000000
2014-11-19 08:22:39,0.08,1.20,0.00,22.22,26.65,29.69,4.86,26.15,1024.98,2033.99,2981.77,2976.77,3222.28,350.28,351.83,12.37,0000 0000 0000 0000 000000
2014-11-19 08:27:40,0.07,1.21,0.00,22.22,26.64,29.70,4.91,26.12,1024.99,2033.99,2980.79,2976.02,3221.58,350.10,351.64,12.40,0000 0000 0000 0000 000000
2014-11-19 08:32:41,0.11,1.21,0.00,22.22,26.62,29.66,4.79,26.27,1025.11,2033.99,2979.62,2975.25,3220.74,349.56,351.23,12.43,0000 0000 0000 0000 000000
2014-11-19 08:37:43,0.08,1.21,0.00,22.20,26.62,29.67,4.91,26.12,1025.27,2033.99,2978.61,2974.48,3219.95,350.64,352.17,12.46,0000 0000 0000 0000 000000
2014-11-19 08:42:44,0.08,1.21,0.00,22.19,26.61,29.65,4.90,26.18,1025.27,2033.99,2977.48,2973.81,3219.08,350.19,351.72,12.49,0000 0000 0000 0000 000000
2014-11-19 08:47:45,0.09,1.22,0.00,22.17,26.60,29.64,4.84,26.18,1025.13,2033.99,2976.32,2973.04,3218.45,350.06,351.64,12.51,0000 0000 0000 0000 000000
2014-11-19 08:52:46,0.10,1.22,0.00,22.17,26.60,29.62,4.85,26.30,1025.13,2033.99,2975.46,2972.31,3217.70,349.97,351.49,12.54,0000 0000 0000 0000 000000
2014-11-19 08:57:47,0.07,1.22,0.00,22.16,26.59,29.64,4.84,26.22,1025.16,2034.00,2974.38,2971.73,3216.89,350.16,351.68,12.57,0000 0000 0000 0000 000000
2014-11-19 09:02:48,0.08,1.23,0.00,22.17,26.57,29.63,4.88,26.22,1025.01,2034.00,2973.12,2970.92,3216.06,350.04,351.42,12.60,0000 0000 0000 0000 000000
2014-11-19 09:07:50,0.10,1.23,0.00,22.16,26.57,29.61,4.83,26.22,1024.98,2034.02,2972.05,2970.10,3215.34,350.16,351.84,12.63,0000 0000 0000 0000 000000
2014-11-19 09:12:51,0.10,1.23,0.00,22.16,26.57,29.61,4.76,26.19,1024.99,2034.06,2971.02,2969.51,3214.68,349.85,351.28,12.66,0000 0000 0000 0000 000000
2014-11-19 09:17:52,0.08,1.23,0.00,22.13,26.56,29.64,4.83,26.18,1025.03,2034.05,2969.94,2968.74,3213.84,350.22,351.80,12.69,0000 0000 0000 0000 000000
2014-11-19 09:22:53,0.09,1.24,0.00,22.12,26.55,29.63,4.89,26.34,1025.14,2034.07,2968.87,2968.02,3213.02,349.43,351.04,12.72,0000 0000 0000 0000 000000
2014-11-19 09:27:55,0.11,1.24,0.00,22.14,26.55,29.62,4.83,26.36,1025.04,2034.12,2967.81,2967.19,3212.15,350.24,351.86,12.75,0000 0000 0000 0000 000000
2014-11-19 09:32:56,0.11,1.24,0.00,22.13,26.54,29.59,4.87,26.31,1025.01,2034.13,2966.68,2966.49,3211.34,350.07,351.47,12.78,0000 0000 0000 0000 000000
2014-11-19 09:37:57,0.08,1.24,0.00,22.13,26.52,29.58,4.86,26.31,1025.04,2034.15,2965.69,2965.80,3210.54,350.23,352.02,12.81,0000 0000 0000 0000 000000
2014-11-19 09:42:59,0.09,1.25,0.00,22.10,26.52,29.58,4.81,26.30,1025.01,2034.18,2964.54,2965.01,3209.78,349.76,351.30,12.84,0000 0000 0000 0000 000000
2014-11-19 09:48:00,0.17,1.25,0.00,22.07,26.51,29.54,4.85,26.35,1025.06,2034.49,2963.33,2964.18,3209.03,349.85,351.77,12.87,0000 0000 0000 0000 000000
2014-11-19 09:53:01,0.14,1.25,0.00,22.08,26.50,29.55,4.86,26.23,1025.13,2034.74,2962.16,2963.56,3208.24,350.01,351.62,12.90,0000 0000 0000 0000 000000
2014-11-19 09:58:02,0.08,1.26,0.00,22.08,26.50,29.53,4.93,26.33,1025.00,2034.96,2961.21,2962.93,3207.63,349.66,351.20,12.92,0000 0000 0000 0000 000000
2014-11-19 10:03:04,0.09,1.26,0.00,22.08,26.50,29.52,4.91,26.18,1024.95,2034.97,2960.22,2962.08,3206.83,350.46,352.09,12.95,0000 0000 0000 0000 000000
2014-11-19 10:08:05,0.09,1.27,0.00,22.06,26.49,29.50,4.84,26.29,1024.93,2034.97,2959.21,2961.29,3206.00,350.31,351.93,12.98,0000 0000 0000 0000 000000
2014-11-19 10:13:06,0.09,1.27,0.00,22.05,26.47,29.53,4.78,26.21,1024.93,2034.95,2958.37,2960.66,3205.07,349.50,351.24,13.01,0000 0000 0000 0000 000000
2014-11-19 10:18:07,0.08,1.27,0.00,22.06,26.47,29.52,4.88,26.23,1024.92,2034.94,2957.26,2960.01,3204.18,349.99,351.54,13.04,0000 0000 0000 0000 000000
2014-11-19 10:23:08,0.10,1.27,0.00,22.03,26.47,29.48,4.88,26.11,1024.92,2034.96,2956.23,2959.24,3203.39,350.29,351.97,13.07,0000 0000 0000 0000 000000
2014-11-19 10:28:10,0.11,1.28,0.00,22.02,26.47,29.47,4.83,26.26,1024.92,2034.97,2955.04,2958.44,3202.63,350.00,351.68,13.10,0000 0000 0000 0000 000000
2014-11-19 10:33:11,0.07,1.28,0.00,22.02,26.45,29.50,4.81,26.29,1024.92,2034.98,2954.09,2957.83,3201.79,349.59,351.39,13.13,0000 0000 0000 0000 000000
2014-11-19 10:38:12,0.09,1.28,0.00,22.02,26.45,29.47,4.77,26.33,1024.92,2034.95,2953.26,2956.98,3200.81,350.01,351.50,13.16,0000 0000 0000 0000 000000
2014-11-19 10:43:13,0.10,1.28,0.00,22.02,26.44,29.49,4.88,26.28,1024.92,2034.95,2951.97,2956.09,3200.02,349.86,351.62,13.19,0000 0000 0000 0000 000000
2014-11-19 10:48:14,0.10,1.29,0.00,22.01,26.42,29.46,4.79,26.17,1024.91,2034.95,2950.96,2955.53,3199.26,349.37,351.04,13.22,0000 0000 0000 0000 000000
2014-11-19 10:53:15,0.06,1.29,0.00,21.99,26.42,29.47,4.86,26.26,1024.92,2034.98,2949.87,2954.94,3198.84,350.25,351.94,13.25,0000 0000 0000 0000 000000
2014-11-19 10:58:17,0.10,1.29,0.00,21.99,26.42,29.46,4.89,26.31,1024.92,2034.99,2948.71,2954.11,3198.05,350.83,352.38,13.28,0000 0000 0000 0000 000000
2014-11-19 11:03:18,0.11,1.30,0.00,21.98,26.40,29.45,4.89,26.32,1024.92,2034.99,2947.49,2953.37,3197.28,349.53,351.34,13.31,0000 0000 0000 0000 000000
2014-11-19 11:08:19,0.08,1.30,0.00,21.97,26.40,29.45,4.76,26.12,1024.92,2034.99,2946.52,2952.73,3196.62,349.79,351.55,13.33,0000 0000 0000 0000 000000
2014-11-19 11:13:20,0.08,1.30,0.00,21.96,26.40,29.42,4.91,26.32,1024.92,2034.99,2945.42,2951.99,3195.79,350.55,351.99,13.36,0000 0000 0000 0000 000000
2014-11-19 11:18:21,0.09,1.30,0.00,21.96,26.39,29.40,4.84,26.24,1024.92,2034.99,2944.38,2951.15,3194.98,349.89,351.72,13.39,0000 0000 0000 0000 000000
2014-11-19 11:23:23,0.09,1.31,0.00,21.95,26.38,29.38,4.88,26.23,1024.92,2034.99,2943.59,2950.57,3194.10,349.65,351.34,13.42,0000 0000 0000 0000 000000
2014-11-19 11:28:24,0.08,1.31,0.00,21.95,26.37,29.38,4.91,26.22,1024.92,2035.00,2942.54,2949.85,3193.29,350.44,352.22,13.45,0000 0000 0000 0000 000000
2014-11-19 11:33:25,0.08,1.31,0.00,21.95,26.37,29.40,4.78,26.28,1024.92,2035.00,2941.79,2949.05,3192.27,349.83,351.64,13.48,0000 0000 0000 0000 000000
2014-11-19 11:38:26,0.11,1.31,0.00,21.95,26.36,29.39,4.70,26.28,1024.92,2035.00,2940.70,2948.33,3191.48,349.88,351.44,13.51,0000 0000 0000 0000 000000
2014-11-19 11:43:27,0.08,1.32,0.00,21.94,26.35,29.38,4.84,26.27,1024.92,2035.00,2939.67,2947.71,3190.76,350.38,351.91,13.54,0000 0000 0000 0000 000000
2014-11-19 11:48:28,0.08,1.32,0.00,21.92,26.35,29.37,4.82,26.32,1024.92,2035.00,2938.55,2946.91,3189.91,349.74,351.51,13.57,0000 0000 0000 0000 000000
2014-11-19 11:53:29,0.10,1.32,0.00,21.92,26.35,29.36,4.86,26.32,1024.87,2035.00,2937.57,2946.07,3189.07,350.14,352.25,13.60,0000 0000 0000 0000 000000
2014-11-19 11:58:31,0.11,1.33,0.00,21.92,26.33,29.38,4.89,26.32,1024.89,2035.00,2936.45,2945.34,3188.20,350.11,351.69,13.63,0000 0000 0000 0000 000000
2014-11-19 12:03:32,0.09,1.33,0.00,21.92,26.32,29.35,4.86,26.21,1024.89,2035.00,2935.48,2944.70,3187.50,349.31,351.37,13.66,0000 0000 0000 0000 000000
2014-11-19 12:08:33,0.07,1.33,0.00,21.92,26.32,29.38,4.78,26.32,1024.88,2035.01,2934.31,2944.01,3186.76,349.46,351.25,13.69,0000 0000 0000 0000 000000
2014-11-19 12:13:34,0.09,1.33,0.00,21.90,26.31,29.34,4.85,26.26,1024.80,2035.00,2933.22,2943.22,3185.92,349.48,351.20,13.72,0000 0000 0000 0000 000000
2014-11-19 12:18:36,0.10,1.34,0.00,21.88,26.30,29.31,4.82,26.24,1024.62,2035.03,2932.18,2942.67,3185.07,349.30,350.92,13.74,0000 0000 0000 0000 000000
2014-11-19 12:23:37,0.08,1.34,0.00,21.89,26.30,29.33,4.89,26.30,1024.60,2035.03,2931.14,2941.90,3184.35,350.09,351.86,13.77,0000 0000 0000 0000 000000
2014-11-19 12:28:38,0.09,1.34,0.00,21.88,26.29,29.34,4.86,26.38,1024.65,2035.05,2930.05,2941.07,3183.76,349.43,351.19,13.80,0000 0000 0000 0000 000000
2014-11-19 12:33:39,0.11,1.34,0.00,21.87,26.27,29.33,4.85,26.28,1024.70,2035.19,2928.83,2940.53,3183.04,349.98,351.82,13.83,0000 0000 0000 0000 000000
2014-11-19 12:38:41,0.11,1.35,0.00,21.87,26.27,29.31,4.80,26.42,1024.64,2035.23,2927.53,2939.71,3182.38,349.89,351.63,13.86,0000 0000 0000 0000 000000
2014-11-19 12:43:42,0.17,1.35,0.00,21.85,26.27,29.27,4.80,26.24,1024.64,2035.63,2926.69,2939.01,3181.45,350.27,352.17,13.89,0000 0000 0000 0000 000000
2014-11-19 12:48:43,0.09,1.36,0.00,21.85,26.25,29.30,4.88,26.45,1024.59,2035.70,2925.63,2938.22,3180.75,350.48,352.28,13.92,0000 0000 0000 0000 000000
2014-11-19 12:53:44,0.10,1.36,0.00,21.85,26.25,29.28,4.81,26.30,1024.54,2035.79,2924.60,2937.62,3179.98,349.56,351.07,13.95,0000 0000 0000 0000 000000
2014-11-19 12:58:46,0.07,1.36,0.00,21.85,26.25,29.28,4.84,26.35,1024.46,2035.89,2923.64,2936.93,3179.13,350.22,351.76,13.98,0000 0000 0000 0000 000000